{"data":{"norad_id":53936,"epoch":"2026-05-25T03:52:09.279264Z","epoch_age_seconds":57818,"freshness":"FRESH","line1":"1 53936U 22119BC  26145.16121851  .00000157  00000+0  27987-4 0  9993","line2":"2 53936  53.2129 315.5600 0001388  93.1674 266.9477 15.08835442203590","mean_motion":15.08835442,"eccentricity":0.0001388,"inclination_deg":53.2129,"raan_deg":315.56,"arg_perigee_deg":93.1674,"mean_anomaly_deg":266.9477,"bstar":2.7987e-5,"rev_number":20359,"period_min":95.437842982482,"perigee_km":538.79711724997,"apogee_km":540.71752471347,"semimajor_km":6917.8943209817,"source":"CELESTRAK","updated_at":"2026-05-25T13:38:17.616548Z"}}